Location: Wiesbaden
(50.0830°N, 8.2500°E)
Time: 20:36:23
(UTC+02:00)

ISS - Pass Details

Date: 19 July 2019
Orbit: 409 x 418 km, 51.6° (Epoch: 20 July)

Event Time Altitude Azimuth Distance (km) Brightness Sun altitude
Rises 22:12:46 0° 225° (SW) 2,346 0.1 -6.4°
Reaches altitude 10° 22:14:57 10° 216° (SW) 1,485 -1.0 -6.7°
Maximum altitude 22:18:01 35° 149° (SSE) 691 -3.2 -7.1°
Drops below altitude 10° 22:21:06 10° 82° (E) 1,487 -1.3 -7.4°
Sets 22:23:17 0° 73° (ENE) 2,350 -0.2 -7.6°
